This demonstration page uses our WeatherBlox Daily Observations layout. Learn more.

Left ArrowRight Arrow

Hourly Observations for September 25, 2015

Temp ( °F °C ) Dew Point ( °F °C ) Humidity (%) Winds ( mph kmh ) Pressure ( in mb ) Visibility ( mi km ) Precip ( " mm )
12:52 am 00:52 Cloudy with Light Rain 68 20 65 18.3 90 90 SE 18 30 30.10 1019 10 16 0.03 0.76
1:52 am 01:52 Cloudy 67 19.4 64 17.8 91 91 SE 10 17 30.10 1019 10 16 0.00 0.03
2:52 am 02:52 Cloudy with Light Rain 66 18.9 64 17.8 93 93 SE 9 15 30.10 1019 10 16 0.00 0.03
3:52 am 03:52 Cloudy 66 18.9 63 17.2 90 90 ESE 7 11 30.10 1019 10 16 0.00 0.03
4:52 am 04:52 Cloudy 66 18.9 62 16.7 87 87 SE 9 15 30.11 1020 10 16 0.00 0.00
5:52 am 05:52 Cloudy 65 18.3 63 17.2 93 93 SSE 6 9 30.12 1020 10 16 0.00 0.00
6:52 am 06:52 Mostly Cloudy 65 18.3 62 16.7 90 90 VRB 3 6 30.14 1021 10 16 0.00 0.00
7:52 am 07:52 Cloudy 66 18.9 62 16.7 87 87 ESE 6 9 30.15 1021 10 16 0.00 0.03
8:52 am 08:52 Mostly Cloudy 67 19.4 62 16.7 84 84 ESE 8 13 30.15 1021 10 16 0.00 0.00
9:52 am 09:52 Mostly Cloudy 70 21.1 62 16.7 76 76 SE 10 17 30.17 1022 10 16 0.00 0.00
10:52 am 10:52 Mostly Cloudy 71 21.7 62 16.7 73 73 ESE 10 17 30.19 1022 10 16 0.00 0.00
11:52 am 11:52 Mostly Cloudy 73 22.8 62 16.7 69 69 ESE 12 19 30.18 1022 10 16 0.00 0.00
12:52 pm 12:52 Mostly Cloudy 73 22.8 62 16.7 69 69 ESE 7 11 30.18 1022 10 16 0.00 0.00
1:52 pm 13:52 Mostly Cloudy 75 23.9 61 16.1 62 62 ESE 9 15 30.17 1022 10 16 0.00 0.00
2:52 pm 14:52 Mostly Cloudy 78 25.6 61 16.1 56 56 S 6 9 30.14 1021 10 16 0.00 0.00
3:52 pm 15:52 Mostly Cloudy 82 27.8 56 13.3 41 41 E 10 17 30.13 1020 10 16 0.00 0.00
4:52 pm 16:52 Partly Cloudy 82 27.8 55 12.8 40 40 ESE 10 17 30.12 1020 10 16 0.00 0.00
5:52 pm 17:52 Partly Cloudy 79 26.1 56 13.3 45 45 E 8 13 30.13 1020 10 16 0.00 0.00
6:52 pm 18:52 Partly Cloudy 75 23.9 60 15.6 60 60 E 6 9 30.14 1021 10 16 0.00 0.00
7:52 pm 19:52 Mostly Clear 70 21.1 57 13.9 64 64 E 9 15 30.16 1021 10 16 0.00 0.00
8:52 pm 20:52 Partly Cloudy 68 20 57 13.9 68 68 E 9 15 30.17 1022 10 16 0.00 0.00
9:52 pm 21:52 Partly Cloudy 67 19.4 57 13.9 71 71 E 9 15 30.18 1022 10 16 0.00 0.00
10:52 pm 22:52 Mostly Clear 64 17.8 57 13.9 78 78 WNW 5 7 30.19 1022 10 16 0.00 0.00
11:52 pm 23:52 Mostly Clear 61 16.1 57 13.9 87 87 NW 5 7 30.19 1022 10 16 0.00 0.00

Powered by AerisWeather